Tracking 30298 objects as of 27-Apr-2025
HD Live streaming from Space Station
objects crossing your sky now

MOS 1B (MOMO 1B)

Track MOS 1B (MOMO 1B) now!
10-day predictions
MOS 1B (MOMO 1B) is classified as:


NORAD ID: 20478
Int'l Code: 1990-013A
Perigee: 911.6 km
Apogee: 918.3 km
Inclination: 99.3 °
Period: 103.2 minutes
Semi major axis: 7285 km
RCS: 3.7354 m2 (large)
Launch date: February 7, 1990
Source: Japan (JPN)
Launch site: TANEGASHIMA SPACE CENTER (TNSTA)
Your satellite tracking list
Your tracking list is empty




NASA's NSSDC Master Catalog

Two Line Element Set (TLE):
1 20478U 90013A   25117.14979869  .00000394  00000-0  32108-3 0  9996
2 20478  99.2748 171.5603 0004651 232.0990 127.9751 13.95960219714195
Source of the keplerian elements: AFSPC